Regional Weather Roundup
Issued by NWS Goodland, KS

Home | Current Version | Previous Version | Text Only | Print | Product List | Glossary Off
Versions: 1 2 3 4 5 6 7 8 9 10 11 12 13 14 15 16 17 18 19 20 21 22 23 24 25 26 27 28 29 30 31 32 33 34 35 36 37 38 39 40 41 42 43 44 45 46 47 48 49 50

000
ASUS43 KGLD 260459
RWRGLD

GOODLAND FORECAST AREA HOURLY WEATHER ROUNDUP
NATIONAL WEATHER SERVICE GOODLAND KS
1100 PM MDT TUE JUL 25 2017

...OFFICIAL OBSERVATIONS...

CITY           SKY/WX    TMP DP  RH WIND       PRES   REMARKS
GOODLAND KS    CLOUDY    77  62  59 W14       30.00S
HILL CITY KS   PTCLDY    87  65  47 S16G25    29.91F
IMPERIAL NEB   CLOUDY    73  64  73 S8        29.95F
MCCOOK NEB     CLOUDY    84  66  54 W13G23    29.92R THUNDER
AKRON CO       PTCLDY    71  60  68 W15       30.09S
BURLINGTON CO  CLOUDY    76  62  62 N8        30.05F
LIMON CO       CLOUDY    66  61  84 NW12      30.16R
$$

...UNOFFICIAL OBSERVATIONS...

CITY           SKY/WX    TMP DP  RH WIND       PRES   REMARKS
LENORA KS        N/A     86  32  14 MISG        N/A
NORTON KS      PTCLDY    88  61  40 SE12G18   29.90F
SHARON SPRINGS   N/A     80  66  61 SW7G15      N/A
TRENTON NEB      N/A     75  32  20 CALM        N/A
KIT CARSON CO    N/A     74  61  63 MISG        N/A
YUMA CO        CLOUDY    70  55  60 S6        30.05R
$$




USA.gov is the U.S. government's official web portal to all federal, state and local government web resources and services.